CW9769 Weather Reports


time (UTC)temp
F
wind
direction
speed
knots
gust
knots
rain 1hr
in
rain 24hr
in
rain mn
in
humidity
%
barometer
mb
20260504031438 51 242 1.7 6.1 0.00 0.00 0.00 65 1011.7
20260504030437 51 254 1.7 7.8 0.00 0.00 0.00 65 1011.7
20260504025436 51 252 3.5 7.8 0.00 0.00 0.00 64 1012.1
20260504024333 51 259 3.5 8.7 0.00 0.00 0.00 64 1012.1
20260504023332 51 263 4.3 8.7 0.00 0.00 0.00 64 1012.0
20260504022331 51 267 4.3 8.7 0.00 0.00 0.00 63 1012.0
20260504021331 51 258 3.5 10.4 0.00 0.00 0.00 62 1012.0
20260504020330 51 261 4.3 11.3 0.00 0.00 0.00 62 1012.0
20260504015329 51 267 4.3 9.6 0.00 0.00 0.00 62 1012.3
20260504014328 51 271 7.0 10.4 0.00 0.00 0.00 61 1012.3
20260504013327 52 276 6.1 12.2 0.00 0.00 0.00 62 1012.3
20260504012327 52 285 6.1 14.8 0.00 0.00 0.00 60 1012.3
20260504011326 52 293 10.4 17.4 0.00 0.00 0.00 59 1012.2
20260504010254 52 295 8.7 17.4 0.00 0.00 0.00 58 1012.2
20260504005253 53 309 11.3 17.4 0.00 0.00 0.00 55 1012.2
20260504004150 54 316 10.4 17.4 0.00 0.00 0.00 51 1011.9
20260504003149 55 287 7.8 13.9 0.00 0.00 0.00 46 1011.5
20260504002117 55 287 5.2 12.2 0.00 0.00 0.00 46 1011.5
20260504001116 56 284 7.0 14.8 0.00 0.00 0.00 44 1011.1
20260504000116 56 290 7.8 15.6 0.00 0.00 0.00 44 1011.1
20260503235044 57 288 6.1 15.6 0.00 0.00 0.00 44 1011.4
20260503234043 58 286 6.1 16.5 0.00 0.00 0.00 42 1011.4
20260503233043 58 296 11.3 20.0 0.00 0.00 0.00 39 1011.4
20260503232042 59 300 9.6 24.3 0.00 0.00 0.00 40 1011.4
20260503231041 59 290 8.7 19.1 0.00 0.00 0.00 39 1011.4
20260503230009 59 296 9.6 19.1 0.00 0.00 0.00 40 1011.4
20260503225008 59 288 14.8 20.0 0.00 0.00 0.00 39 1011.4
20260503224008 58 298 10.4 20.9 0.00 0.00 0.00 40 1011.7
20260503222904 59 302 12.2 20.9 0.00 0.00 0.00 40 1011.7
20260503221904 59 302 11.3 20.9 0.00 0.00 0.00 40 1011.7
20260503220902 59 293 12.2 20.0 0.00 0.00 0.00 40 1011.7
20260503215831 59 306 10.4 19.1 0.00 0.00 0.00 41 1011.7
20260503214830 59 294 9.6 20.0 0.00 0.00 0.00 41 1011.7
20260503213829 60 287 15.6 20.0 0.00 0.00 0.00 40 1011.8
20260503212828 60 298 12.2 22.6 0.00 0.00 0.00 39 1011.8
20260503211827 60 302 13.0 23.5 0.00 0.00 0.00 38 1011.8
20260503210826 61 295 12.2 22.6 0.00 0.00 0.00 41 1011.8
20260503205723 62 289 12.2 22.6 0.00 0.00 0.00 42 1012.2
20260503204722 61 311 10.4 20.9 0.00 0.00 0.00 41 1012.2
20260503203650 60 291 12.2 20.9 0.00 0.00 0.00 39 1012.1
20260503202649 60 298 13.9 20.0 0.00 0.00 0.00 39 1012.5
20260503201648 60 267 10.4 20.9 0.00 0.00 0.00 41 1012.5
20260503200646 61 283 9.6 21.7 0.00 0.00 0.00 39 1012.5
20260503195646 61 304 12.2 23.5 0.00 0.00 0.00 42 1012.9
20260503194645 60 275 13.0 21.7 0.00 0.00 0.00 40 1012.8
20260503193613 60 283 10.4 20.0 0.00 0.00 0.00 43 1013.2
20260503192611 61 285 10.4 20.9 0.00 0.00 0.00 41 1013.2
20260503191610 61 285 12.2 20.9 0.00 0.00 0.00 40 1013.5
20260503190609 60 284 8.7 22.6 0.00 0.00 0.00 40 1013.5
20260503185537 60 300 9.6 18.2 0.00 0.00 0.00 39 1013.8
20260503184537 60 287 10.4 19.1 0.00 0.00 0.00 38 1013.9
20260503183536 60 297 10.4 20.9 0.00 0.00 0.00 42 1013.8
20260503182535 60 300 10.4 21.7 0.00 0.00 0.00 38 1013.8
20260503181535 60 289 13.9 21.7 0.00 0.00 0.00 39 1014.2
20260503180533 59 296 11.3 18.2 0.00 0.00 0.00 43 1014.1
20260503175533 59 301 8.7 18.2 0.00 0.00 0.00 43 1014.5
20260503174532 60 282 11.3 18.2 0.00 0.00 0.00 44 1014.5
20260503173531 60 302 11.3 15.6 0.00 0.00 0.00 44 1014.5
20260503172530 59 304 8.7 17.4 0.00 0.00 0.00 47 1014.5
20260503171529 59 295 11.3 18.2 0.00 0.00 0.00 47 1015.2
20260503170528 58 300 10.4 19.1 0.00 0.00 0.00 48 1014.8
20260503150222 53 310 10.4 17.4 0.00 0.00 0.00 51 1016.1
20260503140146 50 272 10.4 14.8 0.00 0.00 0.00 52 1016.0
20260503131142 47 282 6.1 9.6 0.00 0.00 0.00 56 1016.2
20260503130141 45 275 5.2 9.6 0.00 0.00 0.00 62 1016.2
20260503110825 35 276 2.6 6.1 0.00 0.01 0.00 80 1015.9
20260503081607 36 304 1.7 4.3 0.00 0.03 0.00 75 1016.0
20260503080607 36 303 1.7 4.3 0.00 0.03 0.00 76 1015.6
20260503072603 37 296 2.6 5.2 0.00 0.03 0.00 77 1015.7
20260503071602 37 297 1.7 4.3 0.00 0.03 0.00 78 1015.7
20260503070601 37 301 2.6 4.3 0.00 0.03 0.00 78 1015.7
20260503054554 37 298 1.7 4.3 0.00 0.04 0.00 83 1016.0
20260503053553 37 291 0.9 2.6 0.00 0.04 0.00 84 1016.0
20260503052553 37 291 0.9 2.6 0.00 0.04 0.00 83 1016.0
20260503051552 38 292 0.9 3.5 0.00 0.04 0.00 83 1016.0
20260503050551 38 273 2.6 3.5 0.00 0.04 0.00 82 1016.0
20260503045551 38 272 2.6 3.5 0.00 0.04 0.00 82 1016.0
20260503044519 38 270 0.9 2.6 0.00 0.04 0.00 82 1016.0
20260503043518 39 279 1.7 2.6 0.00 0.04 0.00 80 1016.0
20260503042517 39 268 0.9 2.6 0.00 0.04 0.00 79 1016.0
20260503041516 40 258 1.7 4.3 0.00 0.04 0.00 78 1016.1
20260503040516 40 262 2.6 4.3 0.00 0.04 0.00 77 1016.1
20260503035515 41 260 1.7 3.5 0.00 0.04 0.04 77 1016.1
20260503034514 41 259 1.7 4.3 0.00 0.04 0.04 76 1016.1
20260503033442 41 259 1.7 3.5 0.00 0.04 0.04 76 1016.4
20260503032441 41 253 1.7 4.3 0.00 0.04 0.04 76 1016.1